[[{"header":{"parameterUnit":"m.s-1","parameterCategory":1,"la1":30.2991,"la2":30.254,"lo1":-89.0895,"lo2":-89.0444,"dy":0.0017,"dx":0.0017,"nx":28,"ny":28,"refTime":"2025-11-12T03:00:00:Z","depth":0,"parameterNumber":2,"parameterNumberName":"U-component_of_WINDS"},"data":[0,0,0,0,0,0,0,0,0,0,0,0,0,0,0,0,0,0,0,0,0,0,0,0,0,0,0,0,0,0,0,0,0,0,0,0,0,0,0,0,0,0,0,0,0,0,0,0,0,0,0,0,0,0,0,0,0,0,1.6172,1.6174,0,1.6311,1.6313,1.6314,1.6363,1.6362,1.6362,1.6361,1.6507,1.6511,1.6516,0,0,0,0,0,0,0,0,0,0,0,0,0,1.5953,1.5957,1.6172,1.6174,1.6176,1.6311,1.6313,1.6315,1.6363,1.6362,1.6362,1.6361,1.6506,1.6511,1.6516,0,0,0,0,0,0,0,0,0,0,0,0,0,1.6066,1.5958,1.6172,1.6216,1.6221,1.6311,1.6313,1.6315,1.6363,1.6362,1.6361,1.6361,1.6504,1.651,1.6517,1.6573,0,0,1.6537,1.654,0,0,0,0,0,0,0,0,1.6059,1.6074,1.6208,1.6213,1.6219,1.6319,1.6289,1.6402,1.6363,1.6309,1.6361,1.636,1.6445,1.6457,1.6485,1.658,1.6587,1.6537,1.6541,1.6544,1.6546,0,0,0,0,0,0,0,1.6051,1.6068,1.6227,1.621,1.6217,1.623,1.6245,1.6311,1.638,1.6314,1.6318,1.6333,1.6448,1.6478,1.6488,1.6589,1.6537,1.6543,1.6547,1.655,1.674,1.6741,0,0,0,0,0,0,1.6036,1.6061,1.6223,1.6232,1.6135,1.6235,1.6252,1.6288,1.638,1.6393,1.6334,1.6335,1.6467,1.6481,1.6494,1.6567,1.6544,1.655,1.6554,1.6739,1.674,1.6741,0,0,0,0,0,0,1.6031,1.605,1.6217,1.6147,1.617,1.6239,1.628,1.6291,1.6321,1.6395,1.6408,1.6351,1.6467,1.6484,1.6553,1.6573,1.6553,1.6559,1.6738,1.6739,1.6741,1.6713,0,0,0,0,0,0,1.6024,1.6047,1.6068,1.6148,1.6173,1.6273,1.6281,1.6294,1.6332,1.6334,1.6414,1.6427,1.6468,1.6543,1.656,1.6581,1.6564,1.6736,1.6738,1.674,1.6713,1.6714,1.6715,0,0,0,0,0,1.6016,1.6056,1.6069,1.6089,1.6201,1.6274,1.6289,1.6334,1.6333,1.6355,1.6403,1.6424,1.6568,1.655,1.6569,1.6593,1.6735,1.6738,1.674,1.6712,1.6714,1.6715,0,0,0,0,0,0,1.5978,1.6067,1.6083,1.6149,1.6203,1.6282,1.6312,1.6334,1.6391,1.6391,1.6446,1.6464,1.6529,1.6568,1.6546,1.6654,1.6653,1.6659,1.6625,1.6627,1.6628,1.6617,1.657,0,0,0,0,0,1.5977,1.6027,1.6103,1.6154,1.6181,1.6241,1.6275,1.6305,1.6365,1.6388,1.6441,1.6499,1.6557,1.6595,1.6652,1.6719,1.6738,1.6745,1.6746,1.6746,1.6751,1.6791,1.6795,1.675,1.675,1.675,0,0,1.5975,1.603,1.6059,1.6148,1.6194,1.6247,1.6261,1.6316,1.6356,1.6397,1.6465,1.6506,1.6575,1.6643,1.6676,1.6678,1.6768,1.675,1.6749,1.6754,1.6794,1.6798,1.6802,1.6751,1.6751,1.6751,0,0,1.6,1.6046,1.6094,1.614,1.6209,1.625,1.6261,1.6337,1.6366,1.6435,1.6468,1.6517,1.6616,1.6664,1.6701,1.6746,1.6768,1.6763,1.6768,1.6806,1.6809,1.6813,1.6829,1.6835,1.6768,1.6768,1.6768,0,1.599,1.6069,1.6116,1.617,1.6209,1.6248,1.6298,1.6341,1.6426,1.6452,1.6453,1.6579,1.6627,1.6708,1.6719,1.6748,1.6764,1.6754,1.6805,1.6809,1.6813,1.6829,1.6835,1.6767,1.6767,1.6767,1.6767,0,1.6054,1.6109,1.6139,1.622,1.6262,1.6313,1.637,1.6407,1.6435,1.6475,1.6547,1.6607,1.6678,1.6699,1.6727,1.6785,1.6784,1.6794,1.6794,1.6815,1.6832,1.6838,1.6765,1.6766,1.6766,1.6766,0,0,1.6056,1.6163,1.6173,1.6211,1.6291,1.6335,1.639,1.6458,1.649,1.6548,1.6596,1.6679,1.669,1.6732,1.6765,1.6799,1.6831,1.6805,1.6808,1.6808,1.69,1.6891,1.6897,1.6847,1.6848,1.6849,1.6894,0,1.6091,1.6188,1.6233,1.6311,1.6363,1.6402,1.645,1.6505,1.6545,1.6597,1.6642,1.67,1.671,1.6736,1.677,1.6819,1.685,1.6817,1.6892,1.6894,1.6873,1.6906,1.6897,1.6936,1.6901,1.6902,1.6903,0,1.6145,1.6202,1.6284,1.636,1.6383,1.6425,1.6492,1.6541,1.6605,1.6632,1.668,1.6712,1.6773,1.6769,1.6854,1.683,1.6864,1.6894,1.6896,1.6905,1.6899,1.6915,1.695,1.6956,1.6913,1.6912,1.6912,0,1.6138,1.6236,1.6299,1.633,1.6419,1.6448,1.6487,1.655,1.6589,1.6649,1.6675,1.6741,1.6777,1.6829,1.6879,1.6871,1.6959,1.6959,1.6984,1.6983,1.7,1.6998,1.704,1.7022,1.7022,1.7022,1.7022,0,1.6172,1.6221,1.6297,1.6335,1.6392,1.6445,1.65,1.6542,1.6599,1.6647,1.6686,1.6731,1.6794,1.6847,1.6887,1.6952,1.6968,1.6992,1.7002,1.6989,1.6986,1.7011,1.701,1.7023,1.7023,1.7023,1.7022,0,1.6175,1.6227,1.6298,1.6377,1.6398,1.6437,1.6505,1.6545,1.6588,1.6648,1.6666,1.6733,1.6798,1.6853,1.6939,1.6966,1.7033,1.7045,1.7011,1.7016,1.7037,1.7034,1.7097,1.7108,1.7082,1.7083,1.7083,0,1.6192,1.6231,1.6315,1.6349,1.6387,1.6443,1.6483,1.6537,1.6577,1.6654,1.6685,1.6753,1.681,1.6912,1.697,1.7036,1.705,1.7067,1.706,1.7045,1.705,1.7047,1.7052,1.7067,1.7067,1.7067,1.7067,0,1.6219,1.6243,1.6299,1.6364,1.6411,1.6465,1.652,1.6547,1.6612,1.6655,1.6722,1.6766,1.6854,1.6921,1.6994,1.7036,1.7063,1.7069,1.7079,1.7065,1.7043,1.7055,1.7012,1.7067,1.7067,1.7067,1.7067,1.7067,1.623,1.6266,1.6331,1.6392,1.644,1.6491,1.6532,1.658,1.6636,1.6711,1.674,1.6808,1.6874,1.6974,1.7017,1.7072,1.7076,1.7089,1.7092,1.7095,1.7092,1.7035,1.7085,1.7085,1.7086,1.7086,1.7086,0,1.6258,1.6302,1.6358,1.6434,1.6483,1.6504,1.6567,1.6606,1.6665,1.6724,1.6779,1.6856,1.6922,1.6985,1.7055,1.7087,1.7101,1.7103,1.7101,1.7111,1.7085,1.707,1.7091,1.7091,1.7091,1.7091,1.7091,1.7091,1.6279,1.6342,1.6375,1.6463,1.6507,1.6573,1.6607,1.6655,1.6702,1.6787,1.6841,1.6882,1.6943,1.7017,1.7079,1.7096,1.712,1.7119,1.7139,1.7114,1.7112,1.7111,1.7097,1.7123,1.7123,1.716,1.7161,1.7161]},{"header":{"parameterUnit":"m.s-1","parameterCategory":1,"la1":30.2991,"la2":30.254,"lo1":-89.0895,"lo2":-89.0444,"dy":0.0017,"dx":0.0017,"nx":28,"ny":28,"refTime":"2025-11-12T03:00:00:Z","depth":0,"parameterNumber":3,"parameterNumberName":"V-component_of_WINDS"},"data":[0,0,0,0,0,0,0,0,0,0,0,0,0,0,0,0,0,0,0,0,0,0,0,0,0,0,0,0,0,0,0,0,0,0,0,0,0,0,0,0,0,0,0,0,0,0,0,0,0,0,0,0,0,0,0,0,0,0,2.1543,2.1544,0,2.1565,2.1566,2.1566,2.1583,2.1583,2.1583,2.1583,2.1604,2.1604,2.1605,0,0,0,0,0,0,0,0,0,0,0,0,0,2.1512,2.1513,2.1543,2.1544,2.1544,2.1565,2.1566,2.1566,2.1583,2.1583,2.1583,2.1583,2.1604,2.1604,2.1605,0,0,0,0,0,0,0,0,0,0,0,0,0,2.1529,2.1513,2.1543,2.1555,2.1556,2.1565,2.1566,2.1566,2.1583,2.1583,2.1583,2.1583,2.1604,2.1604,2.1605,2.1604,0,0,2.1607,2.1607,0,0,0,0,0,0,0,0,2.1528,2.153,2.1553,2.1554,2.1555,2.1572,2.1562,2.1579,2.1582,2.1572,2.1583,2.1583,2.1593,2.1594,2.1598,2.1605,2.1606,2.1607,2.1607,2.1607,2.1607,0,0,0,0,0,0,0,2.1527,2.1529,2.1552,2.1553,2.1555,2.1558,2.156,2.1566,2.1581,2.1573,2.1575,2.1577,2.1594,2.1597,2.1598,2.1606,2.1607,2.1607,2.1608,2.1608,2.1612,2.1611,0,0,0,0,0,0,2.1524,2.1528,2.1551,2.1553,2.1542,2.1558,2.1561,2.1566,2.1581,2.1583,2.1577,2.1578,2.1596,2.1598,2.1599,2.1598,2.1607,2.1608,2.1608,2.1612,2.1612,2.1611,0,0,0,0,0,0,2.1524,2.1526,2.155,2.1541,2.1544,2.1558,2.1564,2.1566,2.157,2.1584,2.1586,2.1578,2.1596,2.1598,2.1602,2.1599,2.1608,2.1609,2.1612,2.1612,2.1611,2.1597,0,0,0,0,0,0,2.1523,2.1526,2.1527,2.1541,2.1545,2.1554,2.1564,2.1567,2.1571,2.1573,2.1585,2.1588,2.1597,2.1601,2.1603,2.16,2.1609,2.1613,2.1612,2.1612,2.1598,2.1596,2.1595,0,0,0,0,0,2.1522,2.1522,2.1527,2.1529,2.1546,2.1554,2.1556,2.1567,2.1571,2.1571,2.158,2.1587,2.1599,2.1602,2.1604,2.1601,2.1613,2.1612,2.1612,2.1599,2.1597,2.1595,0,0,0,0,0,0,2.1507,2.1524,2.153,2.1534,2.1542,2.1557,2.1557,2.1564,2.1571,2.1572,2.1585,2.1587,2.159,2.1596,2.1598,2.16,2.1607,2.1607,2.1596,2.1595,2.1593,2.1591,2.161,0,0,0,0,0,2.1504,2.151,2.1524,2.1527,2.1531,2.1543,2.1547,2.1555,2.1563,2.1567,2.1576,2.1583,2.1588,2.1592,2.1598,2.1599,2.1601,2.1598,2.1596,2.1595,2.1594,2.1594,2.1593,2.1609,2.1609,2.1609,0,0,2.1498,2.1508,2.1511,2.1524,2.1531,2.1536,2.1546,2.1551,2.1554,2.1567,2.1572,2.1578,2.1587,2.1589,2.1591,2.1594,2.159,2.1594,2.1593,2.1593,2.1593,2.1592,2.159,2.1609,2.1609,2.1609,0,0,2.1491,2.1499,2.1502,2.1509,2.1519,2.1528,2.1528,2.1541,2.1546,2.155,2.156,2.1563,2.1573,2.1578,2.1583,2.1575,2.1582,2.1576,2.1568,2.1568,2.1567,2.1566,2.1562,2.1561,2.1576,2.1576,2.1576,0,2.1482,2.1491,2.1502,2.1506,2.1511,2.1523,2.1525,2.1531,2.1543,2.1545,2.1549,2.156,2.1567,2.1571,2.1568,2.1572,2.1572,2.1575,2.1566,2.1565,2.1564,2.1561,2.156,2.1575,2.1575,2.1575,2.1575,0,2.1479,2.1485,2.1485,2.1497,2.1501,2.1504,2.1515,2.1518,2.1525,2.1532,2.1536,2.1544,2.1552,2.1553,2.1559,2.1556,2.1558,2.1564,2.1571,2.1562,2.1559,2.1558,2.1574,2.1574,2.1574,2.1575,0,0,2.1464,2.1481,2.1481,2.1485,2.1497,2.1501,2.1504,2.1511,2.1513,2.152,2.1522,2.1529,2.1534,2.1539,2.1546,2.1545,2.1538,2.1551,2.1551,2.1548,2.1534,2.1529,2.1528,2.1542,2.1542,2.1542,2.1533,0,2.1458,2.1465,2.1474,2.1477,2.1481,2.1492,2.1494,2.1501,2.1507,2.1511,2.1518,2.1522,2.1529,2.1531,2.1532,2.1539,2.1535,2.1539,2.1543,2.1543,2.1541,2.1527,2.1522,2.1513,2.1532,2.1532,2.1532,0,2.1453,2.1459,2.1462,2.1472,2.1475,2.1477,2.1483,2.1487,2.1494,2.1499,2.1503,2.151,2.1513,2.1519,2.1521,2.1524,2.1526,2.1529,2.1529,2.153,2.1537,2.1527,2.1511,2.1509,2.153,2.153,2.153,0,2.144,2.145,2.1453,2.1456,2.1469,2.1469,2.1474,2.1482,2.1485,2.149,2.1492,2.1498,2.1501,2.1504,2.1512,2.1516,2.1514,2.1521,2.1517,2.1516,2.1516,2.1516,2.15,2.1517,2.1517,2.1517,2.1517,0,2.1433,2.1434,2.1447,2.1449,2.145,2.1461,2.1461,2.1467,2.1473,2.1476,2.1485,2.1487,2.1497,2.15,2.1506,2.1507,2.1508,2.1511,2.1513,2.151,2.151,2.1512,2.1513,2.1517,2.1517,2.1517,2.1517,0,2.142,2.1429,2.1433,2.1443,2.1446,2.1446,2.1455,2.1456,2.1463,2.1465,2.1466,2.1476,2.1479,2.1488,2.1493,2.1497,2.1496,2.1499,2.1494,2.1495,2.149,2.149,2.1475,2.1473,2.1492,2.1492,2.1491,0,2.1415,2.1416,2.1426,2.1429,2.1433,2.1437,2.144,2.1449,2.1452,2.1459,2.1459,2.1464,2.1467,2.1472,2.1479,2.1483,2.1486,2.148,2.1487,2.1484,2.1485,2.1485,2.1485,2.1479,2.1479,2.1479,2.1479,0,2.1404,2.1408,2.1412,2.1418,2.1421,2.1426,2.1431,2.1432,2.1442,2.1445,2.1448,2.1451,2.1456,2.146,2.1465,2.1469,2.1475,2.1476,2.1475,2.1473,2.147,2.1471,2.149,2.1477,2.1477,2.1477,2.1477,2.1477,2.1395,2.1396,2.1403,2.1407,2.1412,2.1416,2.1417,2.1423,2.1426,2.1432,2.1437,2.1439,2.1445,2.1452,2.1455,2.1457,2.146,2.1459,2.1459,2.1459,2.1457,2.1469,2.1458,2.1458,2.1458,2.1458,2.1458,0,2.1384,2.1389,2.1392,2.1399,2.1402,2.1407,2.1413,2.1414,2.1417,2.1422,2.1425,2.1428,2.1431,2.1438,2.1441,2.1441,2.1444,2.1442,2.1442,2.1442,2.1454,2.1455,2.1439,2.1439,2.1439,2.1439,2.1439,2.1439,2.1379,2.1381,2.1385,2.1389,2.1393,2.1396,2.1398,2.1402,2.1406,2.1409,2.1411,2.1416,2.1421,2.1424,2.1427,2.1429,2.1429,2.1426,2.1429,2.144,2.1442,2.1443,2.1444,2.1426,2.1426,2.1417,2.1416,2.1416]}]]